TimeCST,TemperatureF,Dew PointF,Humidity,Sea Level PressureIn,VisibilityMPH,Wind Direction,Wind SpeedMPH,Gust SpeedMPH,PrecipitationIn,Events,Conditions,WindDirDegrees,DateUTC
12:53 AM,42.1,37.9,85,30.34,10.0,Calm,Calm,-,N/A,,Clear,0,2012-11-29 06:53:00
1:53 AM,41.0,37.0,86,30.33,10.0,Calm,Calm,-,N/A,,Clear,0,2012-11-29 07:53:00
2:53 AM,39.9,36.0,86,30.31,10.0,Calm,Calm,-,N/A,,Clear,0,2012-11-29 08:53:00
3:53 AM,41.0,36.0,82,30.30,10.0,Calm,Calm,-,N/A,,Clear,0,2012-11-29 09:53:00
4:53 AM,37.9,34.0,86,30.31,10.0,Calm,Calm,-,N/A,,Clear,0,2012-11-29 10:53:00
5:53 AM,39.0,35.1,86,30.32,10.0,Calm,Calm,-,N/A,,Clear,0,2012-11-29 11:53:00
6:40 AM,37.4,35.6,93,30.32,10.0,Calm,Calm,-,N/A,,Partly Cloudy,0,2012-11-29 12:40:00
6:53 AM,36.0,35.1,97,30.32,10.0,Calm,Calm,-,N/A,,Clear,0,2012-11-29 12:53:00
7:53 AM,42.1,37.9,85,30.33,10.0,Calm,Calm,-,0.01,,Clear,0,2012-11-29 13:53:00
8:53 AM,48.9,39.9,71,30.35,10.0,Variable,3.5,-,N/A,,Clear,0,2012-11-29 14:53:00
9:53 AM,55.9,42.1,60,30.36,10.0,East,3.5,-,N/A,,Clear,90,2012-11-29 15:53:00
10:53 AM,61.0,43.0,52,30.34,10.0,South,4.6,-,N/A,,Clear,170,2012-11-29 16:53:00
11:53 AM,64.0,46.0,52,30.31,10.0,Variable,3.5,-,N/A,,Clear,0,2012-11-29 17:53:00
12:53 PM,66.0,43.0,43,30.27,10.0,East,3.5,-,N/A,,Clear,90,2012-11-29 18:53:00
1:53 PM,66.9,42.1,40,30.25,10.0,Calm,Calm,-,N/A,,Clear,0,2012-11-29 19:53:00
2:53 PM,68.0,42.1,39,30.22,10.0,Variable,3.5,-,N/A,,Clear,0,2012-11-29 20:53:00
3:53 PM,66.0,41.0,40,30.22,10.0,SE,4.6,-,N/A,,Clear,140,2012-11-29 21:53:00
4:53 PM,63.0,45.0,52,30.22,10.0,Calm,Calm,-,N/A,,Clear,0,2012-11-29 22:53:00
5:53 PM,57.0,50.0,77,30.22,10.0,Calm,Calm,-,N/A,,Clear,0,2012-11-29 23:53:00
6:53 PM,52.0,45.0,77,30.24,10.0,Calm,Calm,-,N/A,,Clear,0,2012-11-30 00:53:00
7:53 PM,52.0,46.0,80,30.26,10.0,ENE,3.5,-,N/A,,Clear,60,2012-11-30 01:53:00
8:53 PM,52.0,48.0,86,30.26,10.0,Calm,Calm,-,N/A,,Clear,0,2012-11-30 02:53:00
9:53 PM,51.1,48.0,89,30.27,10.0,Calm,Calm,-,N/A,,Clear,0,2012-11-30 03:53:00
10:53 PM,48.0,46.9,96,30.26,6.0,Calm,Calm,-,N/A,,Clear,0,2012-11-30 04:53:00
11:53 PM,52.0,50.0,93,30.26,5.0,Calm,Calm,-,N/A,,Clear,0,2012-11-30 05:53:00